• Join FlightAware (Why Join?)
  • Login
  • US Flag 
10:56AM EDT


 

Airport Tracker/Info


-or-


 

Live Flight TrackerFlight Track Log ✈ SKW6335 ✈ 19-Apr-2013 ✈ KLAX - KSAN

Flight Track Log - Related Links

Times and Time Zones

All times are in EDT time to prevent confusion due to time zone crossing. See the SKW6335 flight status page for this flight to view local times or setup timezone preferences in your user account.

Time Position Orientation Groundspeed Altitude Reporting Facility
EDT Latitude Longitude Course Direction KTS MPH feet Rate Location/Type
06:02PM 33.9000 -118.4667 140° Southeast 178 205 3,100  Level Southern California TRACON
06:03PM 33.8614 -118.4764 192° South 194 223 4,500 1,560 Climbing Los Angeles Center
06:04PM 33.8036 -118.4761 180° South 205 236 6,200 1,440 Climbing Los Angeles Center
06:05PM 33.6088 -118.0672 139° Southeast  Level Estimated
06:05PM 33.7483 -118.4586 165° South 219 252 7,600  Level Los Angeles Center
06:06PM 33.5423 -117.9989 139° Southeast  Level FlightAware Approximate
06:06PM 33.6983 -118.4156 144° Southeast 223 257 8,900  Level Los Angeles Center
06:07PM 33.4757 -117.9308 140° Southeast  Level FlightAware Approximate
06:07PM 33.6514 -118.3336 125° Southeast 249 287 8,900  Level Los Angeles Center
06:08PM 33.6128 -118.2631 123° Southeast 254 292 8,900  Level Los Angeles Center
06:09PM 33.5731 -118.1911 124° Southeast 258 297 8,900  Level Los Angeles Center
06:10PM 33.5325 -118.1186 124° Southeast 261 300 8,900  Level Los Angeles Center
06:11PM 33.4831 -118.0317 124° Southeast 263 303 8,900  Level Los Angeles Center
06:12PM 33.4417 -117.9581 124° Southeast 266 306 8,900  Level Los Angeles Center
06:13PM 33.4008 -117.8864 124° Southeast 263 303 8,900  Level Los Angeles Center
06:14PM 33.3597 -117.8136 124° Southeast 264 304 8,900  Level Los Angeles Center
06:15PM 33.3183 -117.7406 124° Southeast 265 305 9,000  Climbing Los Angeles Center
06:16PM 33.2775 -117.6689 124° Southeast 263 303 9,000  Level Los Angeles Center
06:17PM 33.2500 -117.6167 122° Southeast 264 304 9,000  Level Southern California TRACON
06:18PM 33.2000 -117.5500 132° Southeast 268 308 9,000  Level Southern California TRACON
06:19PM 33.1333 -117.5000 148° Southeast 270 311 9,000 -120 Level Southern California TRACON
06:19PM 33.1081 -117.4781 144° Southeast 268 308 8,900 -780 Descending Los Angeles Center
06:20PM 33.0428 -117.4261 146° Southeast 277 319 7,900 -900 Descending Los Angeles Center
06:21PM 32.9753 -117.3742 147° Southeast 286 329 7,100 -600 Descending Los Angeles Center
06:22PM 32.9333 -117.3500 154° Southeast 273 314 7,000 -120 Descending Southern California TRACON
06:23PM 32.8833 -117.2833 132° Southeast 256 295 7,000  Level Southern California TRACON
06:23PM 32.8617 -117.2431 123° Southeast 258 297 7,000 -420 Level Los Angeles Center
06:24PM 32.8231 -117.1742 124° Southeast 253 291 6,400 -960 Descending Los Angeles Center
06:25PM 32.7864 -117.1075 123° Southeast 235 270 5,100 -1,080 Descending Los Angeles Center
06:26PM 32.7667 -117.0833 134° Southeast 200 230 5,000 -540 Descending Southern California TRACON
06:27PM 32.7333 -117.0500 140° Southeast 190 219 4,400 -1,200 Descending Southern California TRACON
06:28PM 32.7167 -117.0833 239° Southwest 155 178 2,600 -1,620 Descending Southern California TRACON
06:29PM 32.7167 -117.1167 270° West 132 152 1,200 -1,440 Descending Southern California TRACON